Weather Roundup
Issued by NWS Springfield, MO

Home | Current Version | Previous Version | Text Only | Print | Product List | Glossary On
Versions: 1 2 3 4 5 6 7 8 9 10 11 12 13 14 15 16 17 18 19 20 21 22 23 24 25 26 27 28 29 30 31 32 33 34 35 36 37 38 39 40 41 42 43 44 45 46 47 48 49 50
000
NZUS99 KSGF 110957
HRRSGF

HOURLY WEATHER
NATIONAL WEATHER SERVICE SPRINGFIELD MO
400 AM CST MON DEC 11 2017

......SGF CWA......

CITY           SKY/WX    TMP DP  RH WIND       PRES   REMARKS
SPRINGFIELD    CLEAR     32  23  69 S8        30.09F WCI  25
JOPLIN         CLEAR     36  24  62 S6        30.12F WCI  31
WEST PLAINS    CLEAR     34  23  64 SW6       30.12F WCI  29
ROLLA          CLEAR     35  25  66 SW13      30.06F WCI  26

......SURROUNDING SGF CWA......

CITY           SKY/WX    TMP DP  RH WIND       PRES   REMARKS
CHANUTE        CLEAR     36  21  54 SW5       30.09F WCI  32
PARSONS        CLEAR     25  21  85 CALM      30.12F
COFFEYVILLE    CLEAR     34  23  64 S5        30.13F WCI  30
EMPORIA        CLEAR     43  15  32 W7        30.06F
HARRISON AR    CLEAR     45  20  36 CALM      30.14F

......KANSAS AND MISSOURI......

CITY           SKY/WX    TMP DP  RH WIND       PRES   REMARKS
KANSAS CTY INT CLEAR     35  20  54 SW9       30.00F WCI  28
SEDALIA        CLEAR     40  27  59 SW14      30.03F WCI  32
ST JOSEPH      PTCLDY    25  22  88 SE5       30.00F WCI  19
ST LOUIS       PTCLDY    30  25  81 CALM      30.07F
WICHITA        CLEAR     40  15  36 W12       30.12F WCI  33
TOPEKA         CLEAR     27  22  81 CALM      30.03F
OLATHE         CLEAR     38  20  48 SW6       30.01F WCI  33

......TENNESSEE......

CITY           SKY/WX    TMP DP  RH WIND       PRES   REMARKS
MEMPHIS        NOT AVBL
NASHVILLE      CLEAR     33  25  72 S5        30.15F WCI  29

......ARKANSAS.......

CITY           SKY/WX    TMP DP  RH WIND       PRES   REMARKS
FAYETTEVILLE   CLEAR     28  24  85 S5        30.19F WCI  23
FT SMITH       CLEAR     33  26  75 CALM      30.19F
LITTLE ROCK    CLEAR     35  29  78 SW6       30.20F WCI  30

......OKLAHOMA.......

CITY           SKY/WX    TMP DP  RH WIND       PRES   REMARKS
TULSA          CLEAR     42  24  49 S5        30.17F
PONCA CITY     CLEAR     31  21  66 W3        30.18S
MCALESTER      CLEAR     34  23  64 SW7       30.22S WCI  28
OKLAHOMA CITY  CLEAR     37  17  44 SW5       30.22S WCI  33

......IOWA............

CITY           SKY/WX    TMP DP  RH WIND       PRES   REMARKS
DES MOINES     NOT AVBL
QUAD CITIES    CLOUDY    30  24  78 VRB3      29.97F

......ILLINOIS........

CITY           SKY/WX    TMP DP  RH WIND       PRES   REMARKS
QUINCY         NOT AVBL
CHICAGO        MOCLDY    26  19  74 S3        29.99F



USA.gov is the U.S. government's official web portal to all federal, state and local government web resources and services.